GW6325 Weather Reports


time (UTC)temp
C
wind
direction
speed
KPH
gust
KPH
rain 1hr
cm
rain 24hr
cm
rain mn
cm
humidity
%
barometer
mb
20260505153250 14 133 1.6 4.8 0.00 0.00 0.00 53 1010.5
20260505152747 14 128 0.0 4.8 0.00 0.00 0.00 52 1010.2
20260505152243 14 82 3.2 4.8 0.00 0.00 0.00 52 1010.2
20260505151737 14 93 3.2 4.8 0.00 0.00 0.00 53 1010.1
20260505151235 14 74 3.2 4.8 0.00 0.00 0.00 56 1010.1
20260505150733 14 142 0.0 1.6 0.00 0.00 0.00 56 1010.2
20260505150230 14 140 0.0 1.6 0.00 0.00 0.00 57 1010.2
20260505140159 13 153 0.0 0.0 0.00 0.00 0.00 57 1009.9
20260505130123 13 153 0.0 1.6 0.00 0.00 0.00 62 1009.5
20260505124613 12 159 0.0 0.0 0.00 0.00 0.00 60 1009.4
20260505124109 12 154 0.0 0.0 0.00 0.00 0.00 60 1009.1
20260505123605 13 151 0.0 0.0 0.00 0.00 0.00 60 1009.2
20260505123102 13 151 0.0 0.0 0.00 0.00 0.00 60 1009.1
20260505122559 13 140 0.0 0.0 0.00 0.00 0.00 59 1009.1
20260505122056 12 136 0.0 0.0 0.00 0.00 0.00 59 1009.1
20260505121552 12 135 0.0 0.0 0.00 0.00 0.00 59 1009.1
20260505121049 12 152 0.0 0.0 0.00 0.00 0.00 59 1009.1
20260505120546 12 153 0.0 0.0 0.00 0.00 0.00 59 1009.1
20260505120041 12 149 0.0 0.0 0.00 0.00 0.00 58 1009.0
20260505115536 13 150 0.0 0.0 0.00 0.00 0.00 58 1008.9
20260505115034 12 158 0.0 0.0 0.00 0.00 0.00 57 1008.9
20260505114530 12 142 0.0 0.0 0.00 0.00 0.00 57 1009.0
20260505114027 12 151 0.0 0.0 0.00 0.00 0.00 58 1009.0
20260505113523 12 140 0.0 0.0 0.00 0.00 0.00 58 1008.9
20260505113020 12 160 0.0 1.6 0.00 0.00 0.00 58 1008.9
20260505112517 13 155 0.0 0.0 0.00 0.00 0.00 58 1008.9
20260505112015 13 150 0.0 0.0 0.00 0.00 0.00 57 1008.9
20260505111508 13 136 0.0 0.0 0.00 0.00 0.00 56 1008.9
20260505111004 13 151 0.0 0.0 0.00 0.00 0.00 56 1008.8
20260505110501 13 157 0.0 0.0 0.00 0.00 0.00 55 1009.1
20260505101933 13 161 0.0 0.0 0.00 0.00 0.00 56 1009.1
20260505101432 13 165 0.0 1.6 0.00 0.00 0.00 55 1008.9
20260505100928 13 164 0.0 1.6 0.00 0.00 0.00 55 1009.0
20260505100425 13 170 1.6 1.6 0.00 0.00 0.00 55 1009.1
20260505095921 13 159 0.0 0.0 0.00 0.00 0.00 55 1009.2
20260505095418 13 168 0.0 1.6 0.00 0.00 0.00 54 1009.1
20260505094914 13 168 0.0 0.0 0.00 0.00 0.00 54 1009.2
20260505094412 13 156 0.0 1.6 0.00 0.00 0.00 54 1009.3
20260505093907 14 146 0.0 0.0 0.00 0.00 0.00 52 1009.3
20260505093404 13 141 0.0 4.8 0.00 0.00 0.00 53 1009.1
20260505092902 13 169 1.6 3.2 0.00 0.00 0.00 53 1009.1
20260505092400 13 117 1.6 1.6 0.00 0.00 0.00 54 1009.2
20260505091856 14 165 0.0 1.6 0.00 0.00 0.00 54 1009.3
20260505091354 14 143 0.0 0.0 0.00 0.00 0.00 53 1009.4
20260505090852 14 121 0.0 1.6 0.00 0.00 0.00 53 1009.3
20260505090350 13 139 0.0 1.6 0.00 0.00 0.00 53 1009.3
20260505085847 13 183 1.6 1.6 0.00 0.00 0.00 55 1009.2
20260505085345 13 153 0.0 0.0 0.00 0.00 0.00 55 1009.4
20260505084842 13 176 1.6 1.6 0.00 0.00 0.00 55 1009.2
20260505084341 13 162 0.0 0.0 0.00 0.00 0.00 54 1009.3
20260505083838 13 170 0.0 0.0 0.00 0.00 0.00 56 1009.0
20260505083335 13 172 1.6 1.6 0.00 0.00 0.00 55 1009.2
20260505082832 13 144 0.0 0.0 0.00 0.00 0.00 55 1009.4
20260505082328 13 158 0.0 3.2 0.00 0.00 0.00 55 1009.2
20260505081825 13 160 0.0 3.2 0.00 0.00 0.00 55 1009.4
20260505081321 14 154 0.0 0.0 0.00 0.00 0.00 54 1009.5
20260505080818 14 170 0.0 1.6 0.00 0.00 0.00 54 1009.8
20260505080314 15 171 1.6 1.6 0.00 0.00 0.00 54 1009.5
20260505075809 15 138 1.6 3.2 0.00 0.00 0.00 53 1009.5
20260505075307 15 164 0.0 3.2 0.00 0.00 0.00 53 1009.9
20260505074804 15 168 0.0 3.2 0.00 0.00 0.00 53 1009.8
20260505074301 15 45 4.8 11.3 0.00 0.00 0.00 52 1009.9
20260505073758 15 145 0.0 1.6 0.00 0.00 0.00 53 1009.9
20260505073256 15 119 0.0 1.6 0.00 0.00 0.00 53 1010.1
20260505072753 15 101 1.6 6.4 0.00 0.00 0.00 53 1009.9
20260505072249 15 114 0.0 11.3 0.00 0.00 0.00 53 1009.9
20260505071745 15 76 8.0 9.7 0.00 0.00 0.00 53 1010.1
20260505071242 15 76 4.8 9.7 0.00 0.00 0.00 53 1010.1
20260505070739 15 78 4.8 9.7 0.00 0.00 0.00 53 1009.9
20260505070235 15 45 11.3 14.5 0.00 0.00 0.00 53 1010.1
20260505065731 15 54 8.0 12.9 0.00 0.00 0.00 52 1010.0
20260505065228 15 63 6.4 9.7 0.00 0.00 0.00 52 1010.1
20260505064725 15 68 6.4 16.1 0.00 0.00 0.00 52 1010.2
20260505064223 16 72 4.8 6.4 0.00 0.00 0.00 51 1010.1
20260505063720 16 34 8.0 14.5 0.00 0.00 0.00 51 1010.0
20260505063216 15 161 1.6 6.4 0.00 0.00 0.00 52 1010.0
20260505062713 16 126 1.6 3.2 0.00 0.00 0.00 51 1009.8
20260505062211 16 59 4.8 9.7 0.00 0.00 0.00 50 1009.9
20260505061707 16 127 1.6 6.4 0.00 0.00 0.00 49 1009.8
20260505061205 16 139 1.6 3.2 0.00 0.00 0.00 48 1009.5
20260505060702 16 137 1.6 4.8 0.00 0.00 0.00 47 1009.4
20260505060159 16 144 1.6 3.2 0.00 0.00 0.00 46 1009.3
20260505055654 16 153 0.0 0.0 0.00 0.00 0.00 46 1009.3
20260505055151 16 159 0.0 3.2 0.00 0.00 0.00 46 1009.2
20260505054649 16 152 0.0 3.2 0.00 0.00 0.00 45 1009.1
20260505054147 16 147 1.6 3.2 0.00 0.00 0.00 44 1009.2
20260505053644 17 154 0.0 1.6 0.00 0.00 0.00 43 1009.1
20260505053140 17 153 0.0 1.6 0.00 0.00 0.00 43 1009.1
20260505052637 17 151 0.0 1.6 0.00 0.00 0.00 42 1009.0
20260505052135 17 126 0.0 1.6 0.00 0.00 0.00 42 1008.9
20260505051631 17 140 0.0 1.6 0.00 0.00 0.00 42 1008.9
20260505051130 17 116 1.6 3.2 0.00 0.00 0.00 41 1009.0
20260505050627 17 145 1.6 6.4 0.00 0.00 0.00 40 1008.8
20260505050125 17 68 8.0 12.9 0.00 0.00 0.00 39 1008.8
20260505041555 17 76 6.4 14.5 0.00 0.00 0.00 35 1008.3
20260505041052 16 61 9.7 9.7 0.00 0.00 0.00 40 1008.0
20260505040549 16 138 0.0 0.0 0.00 0.00 0.00 40 1007.7
20260505040047 17 179 1.6 1.6 0.00 0.00 0.00 40 1007.6
20260505035543 17 124 0.0 1.6 0.00 0.00 0.00 40 1007.5
20260505035039 17 219 3.2 3.2 0.00 0.00 0.00 39 1007.4
20260505034536 17 152 0.0 0.0 0.00 0.00 0.00 39 1007.5
20260505034033 17 150 0.0 0.0 0.00 0.00 0.00 38 1007.4
20260505033530 17 159 0.0 1.6 0.00 0.00 0.00 37 1007.3
20260505033028 18 168 1.6 3.2 0.00 0.00 0.00 38 1007.4
20260505032525 18 158 0.0 0.0 0.00 0.00 0.00 37 1007.3
20260505032022 18 161 0.0 1.6 0.00 0.00 0.00 37 1007.2
20260505031519 18 187 1.6 1.6 0.00 0.00 0.00 36 1007.0
20260505031015 18 158 0.0 0.0 0.00 0.00 0.00 35 1007.0
20260505030512 18 143 1.6 3.2 0.00 0.00 0.00 33 1007.2
20260505030008 19 169 1.6 1.6 0.00 0.00 0.00 33 1007.0
20260505025504 20 140 0.0 1.6 0.00 0.00 0.00 32 1006.9
20260505025004 20 132 0.0 1.6 0.00 0.00 0.00 31 1006.8
20260505024500 20 98 1.6 3.2 0.00 0.00 0.00 31 1006.8
20260505023957 20 134 0.0 1.6 0.00 0.00 0.00 30 1006.7
20260505023454 20 125 1.6 1.6 0.00 0.00 0.00 30 1006.7
20260505022951 20 121 1.6 1.6 0.00 0.00 0.00 30 1006.8
20260505022449 20 136 0.0 1.6 0.00 0.00 0.00 30 1006.5
20260505021946 20 131 0.0 3.2 0.00 0.00 0.00 29 1006.7
20260505021442 21 105 1.6 3.2 0.00 0.00 0.00 29 1006.5
20260505020938 21 89 3.2 4.8 0.00 0.00 0.00 28 1006.6
20260505020433 21 118 4.8 6.4 0.00 0.00 0.00 28 1006.4
20260505015931 21 109 3.2 6.4 0.00 0.00 0.00 27 1006.5
20260505015428 21 95 3.2 4.8 0.00 0.00 0.00 27 1006.4
20260505014925 21 102 3.2 6.4 0.00 0.00 0.00 26 1006.3
20260505014421 21 140 1.6 4.8 0.00 0.00 0.00 27 1006.3
20260505013919 21 80 4.8 9.7 0.00 0.00 0.00 27 1006.3
20260505013416 21 99 6.4 11.3 0.00 0.00 0.00 28 1006.1
20260505012914 22 72 9.7 12.9 0.00 0.00 0.00 28 1006.5
20260505012411 22 105 4.8 9.7 0.00 0.00 0.00 28 1006.6
20260505011907 22 69 8.0 11.3 0.00 0.00 0.00 28 1006.4
20260505011404 22 42 8.0 11.3 0.00 0.00 0.00 27 1006.5
20260505010900 22 46 3.2 9.7 0.00 0.00 0.00 27 1006.6
20260505010356 23 64 8.0 9.7 0.00 0.00 0.00 26 1006.5
20260505005852 23 136 1.6 3.2 0.00 0.00 0.00 26 1006.5
20260505005349 23 136 3.2 3.2 0.00 0.00 0.00 27 1006.5
20260505004847 23 115 4.8 9.7 0.00 0.00 0.00 27 1006.6
20260505004343 23 172 3.2 12.9 0.00 0.00 0.00 26 1006.5
20260505003841 23 167 3.2 6.4 0.00 0.00 0.00 27 1006.7
20260505003338 23 154 3.2 9.7 0.00 0.00 0.00 26 1006.5
20260505002834 23 88 3.2 6.4 0.00 0.00 0.00 25 1006.7
20260505002331 23 158 1.6 4.8 0.00 0.00 0.00 26 1006.9
20260505001829 23 121 1.6 4.8 0.00 0.00 0.00 26 1006.9
20260505001326 23 137 1.6 4.8 0.00 0.00 0.00 26 1006.6
20260505000823 23 98 1.6 3.2 0.00 0.00 0.00 26 1006.9
20260505000321 23 118 1.6 4.8 0.00 0.00 0.00 26 1007.0
20260504235817 23 117 4.8 14.5 0.00 0.00 0.00 26 1007.0
20260504235314 23 71 1.6 11.3 0.00 0.00 0.00 27 1006.9
20260504234811 23 94 1.6 6.4 0.00 0.00 0.00 27 1007.0
20260504234309 23 79 4.8 9.7 0.00 0.00 0.00 27 1007.0
20260504233805 23 106 4.8 9.7 0.00 0.00 0.00 30 1006.9
20260504233300 23 69 6.4 12.9 0.00 0.00 0.00 28 1007.0
20260504232758 24 105 3.2 14.5 0.00 0.00 0.00 28 1007.2
20260504232255 23 66 4.8 11.3 0.00 0.00 0.00 28 1006.9
20260504231751 23 138 4.8 20.9 0.00 0.00 0.00 28 1006.9
20260504231248 23 89 3.2 11.3 0.00 0.00 0.00 29 1006.8
20260504230744 23 131 6.4 14.5 0.00 0.00 0.00 30 1006.7
20260504230242 25 63 8.0 12.9 0.00 0.00 0.00 27 1006.8
20260504225741 25 126 3.2 3.2 0.00 0.00 0.00 23 1006.5
20260504225237 24 132 1.6 14.5 0.00 0.00 0.00 23 1006.8
20260504224734 24 122 3.2 6.4 0.00 0.00 0.00 23 1006.8
20260504224231 24 156 4.8 6.4 0.00 0.00 0.00 22 1006.8
20260504223727 25 63 6.4 11.3 0.00 0.00 0.00 22 1006.8
20260504223223 25 186 4.8 6.4 0.00 0.00 0.00 21 1006.7
20260504222720 25 129 6.4 9.7 0.00 0.00 0.00 25 1006.8
20260504222217 25 128 3.2 9.7 0.00 0.00 0.00 24 1006.9
20260504221714 25 157 0.0 3.2 0.00 0.00 0.00 24 1006.7
20260504221211 25 67 6.4 11.3 0.00 0.00 0.00 20 1007.0
20260504220708 25 113 3.2 9.7 0.00 0.00 0.00 23 1006.9
20260504220206 25 86 4.8 4.8 0.00 0.00 0.00 21 1006.9
20260504215702 25 171 3.2 6.4 0.00 0.00 0.00 22 1007.3
20260504215159 26 59 4.8 6.4 0.00 0.00 0.00 22 1007.3
20260504214654 25 150 1.6 9.7 0.00 0.00 0.00 23 1007.2
20260504214151 25 84 3.2 11.3 0.00 0.00 0.00 23 1007.5
20260504213648 26 136 4.8 6.4 0.00 0.00 0.00 23 1007.4
20260504213145 26 161 1.6 11.3 0.00 0.00 0.00 24 1007.6
20260504212641 25 174 1.6 11.3 0.00 0.00 0.00 24 1007.8
20260504212138 25 196 4.8 9.7 0.00 0.00 0.00 25 1007.6
20260504211636 25 160 3.2 6.4 0.00 0.00 0.00 26 1007.7
20260504211132 25 138 1.6 6.4 0.00 0.00 0.00 24 1007.8
20260504210630 25 186 4.8 4.8 0.00 0.00 0.00 26 1007.8
20260504210126 25 69 4.8 4.8 0.00 0.00 0.00 24 1008.2
20260504205623 25 115 1.6 4.8 0.00 0.00 0.00 24 1008.0
20260504205121 25 119 3.2 6.4 0.00 0.00 0.00 23 1008.1
20260504204619 25 155 1.6 6.4 0.00 0.00 0.00 22 1008.1
20260504204118 25 75 8.0 9.7 0.00 0.00 0.00 23 1008.2
20260504203616 25 94 6.4 9.7 0.00 0.00 0.00 23 1007.8
20260504203113 25 91 1.6 9.7 0.00 0.00 0.00 24 1008.3
20260504202608 25 156 3.2 4.8 0.00 0.00 0.00 24 1008.3
20260504202105 24 150 1.6 6.4 0.00 0.00 0.00 24 1008.3
20260504201602 25 42 8.0 11.3 0.00 0.00 0.00 23 1008.4
20260504201100 25 167 3.2 9.7 0.00 0.00 0.00 25 1008.5
20260504200556 25 59 3.2 4.8 0.00 0.00 0.00 26 1008.4
20260504200053 25 48 3.2 4.8 0.00 0.00 0.00 26 1008.6
20260504195549 24 157 1.6 6.4 0.00 0.00 0.00 26 1008.6
20260504195046 24 237 6.4 11.3 0.00 0.00 0.00 25 1008.8
20260504194542 24 159 1.6 11.3 0.00 0.00 0.00 26 1008.8
20260504194038 25 164 1.6 3.2 0.00 0.00 0.00 24 1009.0
20260504193535 24 219 1.6 3.2 0.00 0.00 0.00 26 1009.0
20260504193033 24 129 1.6 6.4 0.00 0.00 0.00 29 1009.0
20260504192531 23 268 3.2 11.3 0.00 0.00 0.00 27 1009.2
20260504192029 23 58 3.2 4.8 0.00 0.00 0.00 28 1009.0
20260504191527 23 86 3.2 9.7 0.00 0.00 0.00 28 1009.0
20260504191023 23 92 3.2 4.8 0.00 0.00 0.00 27 1009.1
20260504190519 23 99 3.2 9.7 0.00 0.00 0.00 25 1009.2
20260504190015 23 150 1.6 4.8 0.00 0.00 0.00 27 1009.3
20260504185512 24 59 6.4 6.4 0.00 0.00 0.00 25 1009.4
20260504185009 23 153 3.2 6.4 0.00 0.00 0.00 28 1009.4
20260504184509 23 221 3.2 6.4 0.00 0.00 0.00 25 1009.4
20260504184005 23 182 1.6 3.2 0.00 0.00 0.00 26 1009.8
20260504183503 23 208 3.2 4.8 0.00 0.00 0.00 28 1009.8
20260504183001 23 119 1.6 11.3 0.00 0.00 0.00 27 1009.5
20260504182457 23 150 0.0 6.4 0.00 0.00 0.00 30 1009.7
20260504181955 23 124 1.6 3.2 0.00 0.00 0.00 26 1009.7
20260504181451 23 151 1.6 3.2 0.00 0.00 0.00 26 1010.1
20260504180950 23 173 3.2 4.8 0.00 0.00 0.00 28 1010.0
20260504180449 23 148 4.8 9.7 0.00 0.00 0.00 29 1009.9
20260504175947 23 155 3.2 9.7 0.00 0.00 0.00 28 1010.1
20260504175443 23 146 0.0 1.6 0.00 0.00 0.00 27 1010.0
20260504174941 23 126 3.2 9.7 0.00 0.00 0.00 29 1010.1
20260504174438 23 99 1.6 6.4 0.00 0.00 0.00 30 1010.2
20260504173936 22 145 1.6 1.6 0.00 0.00 0.00 31 1010.2
20260504173431 23 153 3.2 6.4 0.00 0.00 0.00 29 1010.2
20260504172930 23 154 1.6 9.7 0.00 0.00 0.00 29 1010.2
20260504172425 23 189 3.2 4.8 0.00 0.00 0.00 30 1010.1
20260504171922 22 148 1.6 4.8 0.00 0.00 0.00 32 1010.2
20260504171419 22 165 1.6 6.4 0.00 0.00 0.00 29 1010.3
20260504170916 22 74 4.8 4.8 0.00 0.00 0.00 29 1010.3
20260504170412 21 155 0.0 3.2 0.00 0.00 0.00 27 1010.2
20260504160332 20 182 3.2 4.8 0.00 0.00 0.00 33 1010.5